[[{"header":{"parameterUnit":"m.s-1","parameterCategory":1,"la1":30.2991,"la2":30.254,"lo1":-89.0895,"lo2":-89.0444,"dy":0.0017,"dx":0.0017,"nx":28,"ny":28,"refTime":"2023-06-27T21:00:00:Z","depth":0,"parameterNumber":2,"parameterNumberName":"U-component_of_WINDS"},"data":[0,0,0,0,0,0,0,0,0,0,0,0,0,0,0,0,0,0,0,0,0,0,0,0,0,0,0,0,0,0,0,0,0,0,0,0,0,0,0,0,0,0,0,0,0,0,0,0,0,0,0,0,0,0,0,0,0,0,1.5773,1.5778,0,1.6253,1.6259,1.6264,1.658,1.6582,1.6584,1.6586,1.7059,1.707,1.708,0,0,0,0,0,0,0,0,0,0,0,0,0,1.5116,1.5126,1.5773,1.5779,1.5785,1.6252,1.6259,1.6265,1.6579,1.6582,1.6585,1.6587,1.7056,1.7068,1.7081,0,0,0,0,0,0,0,0,0,0,0,0,0,1.5478,1.5129,1.5772,1.5998,1.6024,1.6251,1.6259,1.6267,1.6579,1.6582,1.6585,1.6588,1.7052,1.7067,1.7083,1.7117,0,0,1.7132,1.7139,0,0,0,0,0,0,0,0,1.5457,1.5502,1.5959,1.5983,1.6012,1.6361,1.6201,1.6551,1.6578,1.6367,1.6586,1.659,1.6823,1.6858,1.694,1.7139,1.716,1.7133,1.7143,1.715,1.7154,0,0,0,0,0,0,0,1.5431,1.5483,1.5962,1.5965,1.5998,1.6072,1.6127,1.6269,1.657,1.6386,1.641,1.6464,1.6838,1.6924,1.6954,1.7167,1.7133,1.7147,1.7157,1.7163,1.7422,1.7419,0,0,0,0,0,0,1.5373,1.546,1.5947,1.5977,1.5737,1.6081,1.6143,1.6245,1.657,1.6623,1.646,1.6477,1.6895,1.6935,1.6971,1.7036,1.7149,1.7164,1.7173,1.7424,1.7421,1.7418,0,0,0,0,0,0,1.5357,1.5413,1.5928,1.5726,1.5797,1.6089,1.6201,1.6253,1.634,1.6627,1.6681,1.6494,1.69,1.6949,1.7081,1.7056,1.7171,1.7186,1.7428,1.7423,1.742,1.7161,0,0,0,0,0,0,1.5337,1.5406,1.5424,1.5724,1.5806,1.6032,1.62,1.626,1.6368,1.6394,1.6673,1.6722,1.6906,1.7055,1.7097,1.708,1.7198,1.7431,1.7426,1.7421,1.7173,1.7149,1.7128,0,0,0,0,0,1.5313,1.5328,1.5424,1.5481,1.5837,1.603,1.6077,1.6294,1.6365,1.6385,1.657,1.6713,1.7053,1.7066,1.7115,1.7103,1.7433,1.7427,1.7421,1.7183,1.7153,1.7128,0,0,0,0,0,0,1.5009,1.5371,1.5481,1.5594,1.578,1.6083,1.6114,1.6255,1.6419,1.6435,1.6692,1.6752,1.6858,1.6995,1.7003,1.7156,1.726,1.7264,1.7062,1.7036,1.7014,1.6977,1.7212,0,0,0,0,0,1.4957,1.509,1.5396,1.5466,1.5554,1.5817,1.5909,1.6062,1.6262,1.634,1.6535,1.6719,1.6869,1.696,1.7113,1.7196,1.726,1.7212,1.7189,1.7169,1.7168,1.7224,1.7206,1.7399,1.7399,1.7399,0,0,1.4847,1.5061,1.5127,1.5411,1.5573,1.57,1.5881,1.6006,1.6103,1.6357,1.6496,1.6645,1.6868,1.6975,1.7032,1.7092,1.713,1.7161,1.7143,1.7154,1.7215,1.7197,1.718,1.7394,1.7395,1.7396,0,0,1.4713,1.4889,1.4969,1.513,1.5376,1.5552,1.557,1.5855,1.5966,1.6111,1.6305,1.6421,1.6672,1.6824,1.6933,1.6864,1.7001,1.6906,1.6786,1.6837,1.6822,1.681,1.6785,1.6773,1.6904,1.6904,1.6903,0,1.4544,1.4749,1.4989,1.5108,1.5226,1.5471,1.5552,1.5694,1.5973,1.6047,1.6112,1.6437,1.6603,1.6751,1.6735,1.6816,1.6843,1.6873,1.6806,1.6796,1.6788,1.6767,1.6757,1.6891,1.6892,1.6893,1.6895,0,1.4529,1.4668,1.4702,1.4975,1.5098,1.5195,1.5447,1.5542,1.5685,1.5852,1.5997,1.6207,1.6408,1.6456,1.6592,1.6624,1.6654,1.6758,1.6868,1.6753,1.6737,1.6731,1.6872,1.6876,1.688,1.6884,0,0,1.4211,1.4623,1.4631,1.476,1.5052,1.5161,1.527,1.5475,1.555,1.5736,1.5832,1.6042,1.6144,1.6268,1.6425,1.647,1.6403,1.6572,1.6581,1.6532,1.645,1.6367,1.6354,1.6497,1.6497,1.6497,1.6431,0,1.412,1.4335,1.4558,1.4692,1.4823,1.5061,1.5156,1.5343,1.5504,1.5636,1.5812,1.5958,1.608,1.6157,1.6213,1.6398,1.6389,1.6407,1.6585,1.6589,1.652,1.6347,1.6259,1.6187,1.6426,1.6426,1.6425,0,1.4041,1.4225,1.4373,1.4659,1.4722,1.4804,1.5011,1.5136,1.5353,1.5467,1.5609,1.5779,1.5902,1.6,1.6173,1.618,1.6267,1.6369,1.6372,1.6394,1.6497,1.6362,1.6169,1.6157,1.6418,1.6418,1.6419,0,1.3794,1.4077,1.4205,1.4308,1.4643,1.4695,1.4836,1.5058,1.5168,1.5347,1.5421,1.5609,1.5711,1.5852,1.6066,1.6118,1.6216,1.6332,1.6311,1.6305,1.6318,1.6313,1.6133,1.6376,1.6376,1.6376,1.6376,0,1.3668,1.3749,1.41,1.4177,1.4276,1.453,1.4619,1.478,1.4977,1.5087,1.5302,1.54,1.568,1.581,1.5978,1.6096,1.614,1.6233,1.6276,1.6213,1.6201,1.6271,1.628,1.6374,1.6374,1.6375,1.6375,0,1.3406,1.3645,1.3799,1.4108,1.4187,1.4246,1.4508,1.4591,1.4767,1.4904,1.4951,1.5225,1.5391,1.5621,1.5854,1.5968,1.6061,1.6131,1.5989,1.6014,1.5981,1.598,1.5838,1.5832,1.6076,1.6074,1.6072,0,1.3308,1.3378,1.3697,1.3791,1.3927,1.4073,1.419,1.4443,1.4554,1.481,1.4861,1.5045,1.5205,1.5457,1.5674,1.5855,1.593,1.5868,1.5957,1.5892,1.5928,1.592,1.5928,1.5844,1.584,1.5837,1.5834,0,1.311,1.3227,1.3389,1.3594,1.3728,1.3899,1.408,1.4142,1.4434,1.4547,1.4723,1.4847,1.5092,1.527,1.5481,1.5622,1.5774,1.5806,1.581,1.5744,1.5659,1.5704,1.5928,1.5806,1.5809,1.5811,1.5813,1.5814,1.2928,1.3002,1.324,1.3414,1.3579,1.3745,1.3839,1.4032,1.4185,1.4407,1.4547,1.4716,1.4934,1.5235,1.5369,1.5502,1.5564,1.557,1.5572,1.5569,1.5547,1.564,1.5541,1.5543,1.5544,1.5545,1.5545,0,1.2739,1.2907,1.3065,1.3316,1.3453,1.3595,1.3804,1.3906,1.4055,1.4249,1.4406,1.4608,1.4784,1.5018,1.5209,1.5271,1.5346,1.5312,1.5309,1.5339,1.5481,1.5458,1.5249,1.5249,1.5249,1.5249,1.5249,1.5249,1.2657,1.2792,1.2937,1.3156,1.3322,1.3495,1.3602,1.3755,1.3912,1.4131,1.4281,1.4436,1.4646,1.4856,1.5023,1.5087,1.5146,1.509,1.5174,1.5302,1.5328,1.5354,1.5333,1.5102,1.5101,1.5022,1.5021,1.5021]},{"header":{"parameterUnit":"m.s-1","parameterCategory":1,"la1":30.2991,"la2":30.254,"lo1":-89.0895,"lo2":-89.0444,"dy":0.0017,"dx":0.0017,"nx":28,"ny":28,"refTime":"2023-06-27T21:00:00:Z","depth":0,"parameterNumber":3,"parameterNumberName":"V-component_of_WINDS"},"data":[0,0,0,0,0,0,0,0,0,0,0,0,0,0,0,0,0,0,0,0,0,0,0,0,0,0,0,0,0,0,0,0,0,0,0,0,0,0,0,0,0,0,0,0,0,0,0,0,0,0,0,0,0,0,0,0,0,0,-4.0998,-4.0999,0,-4.1102,-4.1103,-4.1104,-4.0823,-4.0814,-4.0805,-4.0797,-4.0918,-4.0929,-4.094,0,0,0,0,0,0,0,0,0,0,0,0,0,-4.0565,-4.0574,-4.0998,-4.0999,-4.1001,-4.1101,-4.1103,-4.1104,-4.0824,-4.0813,-4.0803,-4.0793,-4.0914,-4.0927,-4.0941,0,0,0,0,0,0,0,0,0,0,0,0,0,-4.072,-4.0577,-4.0998,-4.0873,-4.0862,-4.1101,-4.1103,-4.1105,-4.0826,-4.0813,-4.08,-4.0788,-4.0909,-4.0926,-4.0943,-4.1312,0,0,-4.0995,-4.1003,0,0,0,0,0,0,0,0,-4.0711,-4.0736,-4.089,-4.0882,-4.0871,-4.0935,-4.0994,-4.1175,-4.083,-4.0841,-4.0796,-4.0781,-4.0935,-4.0949,-4.0998,-4.1318,-4.1323,-4.0997,-4.1007,-4.1014,-4.1019,0,0,0,0,0,0,0,-4.0701,-4.073,-4.1039,-4.0892,-4.0881,-4.0813,-4.0821,-4.1027,-4.0961,-4.0839,-4.0818,-4.0834,-4.0927,-4.0982,-4.0999,-4.1325,-4.0996,-4.1011,-4.1022,-4.1029,-4.1944,-4.1957,0,0,0,0,0,0,-4.0705,-4.0723,-4.1036,-4.1042,-4.0756,-4.0832,-4.084,-4.0928,-4.0958,-4.0949,-4.0845,-4.082,-4.096,-4.0979,-4.1002,-4.1431,-4.1014,-4.103,-4.104,-4.193,-4.1947,-4.1962,0,0,0,0,0,0,-4.0697,-4.0735,-4.1032,-4.0877,-4.0909,-4.0853,-4.0954,-4.0937,-4.0991,-4.0962,-4.095,-4.0913,-4.095,-4.0978,-4.1234,-4.1432,-4.1038,-4.1054,-4.1913,-4.1935,-4.1954,-4.2297,0,0,0,0,0,0,-4.0685,-4.0734,-4.0873,-4.0882,-4.0919,-4.1262,-4.0967,-4.0949,-4.102,-4.0989,-4.1023,-4.1016,-4.0942,-4.121,-4.1251,-4.1448,-4.1067,-4.1895,-4.1923,-4.1948,-4.2268,-4.2327,-4.2378,0,0,0,0,0,-4.0671,-4.0971,-4.0882,-4.0921,-4.1091,-4.1274,-4.1295,-4.12,-4.1037,-4.1177,-4.1156,-4.1015,-4.1403,-4.1239,-4.1283,-4.1488,-4.1883,-4.1915,-4.1946,-4.2243,-4.2315,-4.2376,0,0,0,0,0,0,-4.0995,-4.097,-4.0871,-4.1182,-4.1231,-4.1226,-4.14,-4.128,-4.1381,-4.1348,-4.1229,-4.1239,-4.1517,-4.1527,-4.1345,-4.1842,-4.1615,-4.1657,-4.1826,-4.1895,-4.1948,-4.1941,-4.1081,0,0,0,0,0,-4.11,-4.1248,-4.1219,-4.1497,-4.1525,-4.1459,-4.1535,-4.1455,-4.1504,-4.1525,-4.1524,-4.1579,-4.1711,-4.1803,-4.1925,-4.2266,-4.2268,-4.2428,-4.2483,-4.2528,-4.2567,-4.2742,-4.2812,-4.2066,-4.2066,-4.2065,0,0,-4.1325,-4.1329,-4.1431,-4.1561,-4.159,-4.1746,-4.1479,-4.1658,-4.1773,-4.1554,-4.1793,-4.1794,-4.1847,-4.2145,-4.2277,-4.2163,-4.2772,-4.2568,-4.2605,-4.2619,-4.2782,-4.2853,-4.2915,-4.2087,-4.2083,-4.208,0,0,-4.1811,-4.183,-4.206,-4.2091,-4.2134,-4.2086,-4.2141,-4.2152,-4.2142,-4.2378,-4.2215,-4.235,-4.2585,-4.2627,-4.2679,-4.3171,-4.3044,-4.3214,-4.3503,-4.3675,-4.3734,-4.3785,-4.3959,-4.4022,-4.3252,-4.3253,-4.3253,0,-4.2086,-4.2312,-4.2195,-4.2381,-4.2442,-4.2242,-4.2473,-4.2511,-4.2596,-4.2643,-4.2512,-4.2794,-4.2817,-4.3119,-4.3237,-4.3288,-4.3346,-4.3212,-4.3734,-4.3785,-4.3831,-4.3995,-4.406,-4.3273,-4.3271,-4.3269,-4.3267,0,-4.2645,-4.2804,-4.2984,-4.3061,-4.3142,-4.3352,-4.3266,-4.3363,-4.3274,-4.324,-4.348,-4.3498,-4.3616,-4.3681,-4.3601,-4.3971,-4.3898,-4.3753,-4.3523,-4.3924,-4.4076,-4.4138,-4.3302,-4.3295,-4.3289,-4.3284,0,0,-4.3347,-4.3348,-4.3417,-4.3446,-4.3474,-4.3596,-4.3794,-4.3902,-4.3986,-4.4048,-4.4211,-4.4407,-4.4269,-4.4329,-4.4249,-4.4401,-4.4784,-4.4235,-4.4234,-4.4336,-4.5189,-4.5299,-4.5374,-4.4697,-4.4708,-4.4718,-4.5184,0,-4.3825,-4.4159,-4.4055,-4.4393,-4.4536,-4.4343,-4.4514,-4.4551,-4.4523,-4.4641,-4.4609,-4.4749,-4.4558,-4.4592,-4.4732,-4.4708,-4.4954,-4.4672,-4.4849,-4.4856,-4.4843,-4.5453,-4.5573,-4.6013,-4.5243,-4.5253,-4.526,0,-4.443,-4.4506,-4.4858,-4.4853,-4.4909,-4.5066,-4.5153,-4.5268,-4.5304,-4.5271,-4.5333,-4.5219,-4.5412,-4.5178,-4.5441,-4.5252,-4.5317,-4.5315,-4.5329,-4.5345,-4.5085,-4.5486,-4.6151,-4.6217,-4.5353,-4.5345,-4.5339,0,-4.4904,-4.5096,-4.5328,-4.5359,-4.5362,-4.5475,-4.5482,-4.5504,-4.5573,-4.565,-4.5693,-4.5795,-4.5851,-4.5932,-4.5848,-4.5685,-4.6124,-4.5883,-4.6103,-4.6106,-4.6208,-4.6203,-4.6894,-4.6249,-4.6248,-4.6246,-4.6245,0,-4.5449,-4.5672,-4.5539,-4.5684,-4.5925,-4.5802,-4.6045,-4.603,-4.605,-4.6187,-4.6027,-4.6161,-4.604,-4.6163,-4.6099,-4.6325,-4.6352,-4.6332,-4.6313,-4.6347,-4.635,-4.6391,-4.6359,-4.6264,-4.626,-4.6257,-4.6254,0,-4.6023,-4.5943,-4.6183,-4.6161,-4.6161,-4.634,-4.6322,-4.6454,-4.6409,-4.6585,-4.6619,-4.6551,-4.6685,-4.6607,-4.6748,-4.6703,-4.6997,-4.6936,-4.6985,-4.6968,-4.7192,-4.7173,-4.7935,-4.8028,-4.7323,-4.7329,-4.7335,0,-4.6377,-4.6541,-4.6534,-4.6611,-4.6627,-4.6755,-4.6822,-4.6705,-4.6782,-4.6829,-4.6956,-4.7074,-4.7164,-4.7387,-4.7352,-4.7456,-4.7397,-4.7656,-4.7412,-4.7439,-4.74,-4.7391,-4.7406,-4.7707,-4.7716,-4.7722,-4.7728,0,-4.7013,-4.6963,-4.7063,-4.7149,-4.7232,-4.7295,-4.7346,-4.7419,-4.7301,-4.7395,-4.7527,-4.7595,-4.7732,-4.7852,-4.7939,-4.7947,-4.782,-4.7803,-4.7859,-4.7898,-4.7919,-4.7909,-4.7119,-4.7788,-4.7782,-4.7777,-4.7774,-4.7772,-4.7487,-4.7621,-4.7635,-4.7751,-4.7774,-4.7822,-4.7943,-4.7908,-4.8015,-4.8114,-4.8038,-4.8194,-4.8218,-4.832,-4.8343,-4.8464,-4.836,-4.8443,-4.8463,-4.8486,-4.8516,-4.7897,-4.848,-4.8478,-4.8476,-4.8475,-4.8473,0,-4.8114,-4.811,-4.8217,-4.8288,-4.8378,-4.8241,-4.8287,-4.8373,-4.851,-4.8541,-4.8629,-4.8778,-4.889,-4.886,-4.896,-4.9063,-4.9006,-4.9093,-4.9086,-4.9089,-4.8604,-4.8545,-4.9137,-4.9137,-4.9137,-4.9137,-4.9136,-4.9136,-4.8451,-4.867,-4.862,-4.8848,-4.8842,-4.899,-4.9027,-4.9071,-4.9093,-4.9265,-4.9355,-4.9331,-4.9337,-4.9435,-4.9532,-4.9519,-4.9565,-4.9674,-4.9641,-4.919,-4.9124,-4.9062,-4.9005,-4.9685,-4.9685,-5.0116,-5.012,-5.0123]}]]